Location: Bethera
(33.2010°N, 79.7880°W)
Time: 23:07:22
(UTC-04:00)

Amateur Radio Satellites - All Passes

Search period start: 29 June 2016 22:37
Search period end: 30 June 2016 22:37
Location: Bethera, 33.2010°N, 79.7880°W

Satellite Date Start Highest point End Downlink Frequencies (MHz)
Time Altitude Azimuth
CUBEBUG 2 29 Jun 22:40:15 22:41:43 12° 268° (W) 22:43:13 437.445
DELFI C3 29 Jun 22:42:16 22:46:12 53° 260° (W) 22:50:09 145.870
ZACube-1 29 Jun 22:59:24 23:02:04 16° 266° (W) 23:04:45 437.345
TIGRISAT 29 Jun 23:02:08 23:06:14 30° 97° (E) 23:10:21 435.000
Oscar 11 29 Jun 23:07:30 23:09:26 13° 267° (W) 23:11:22 145.826/435.025
UNISAT 6 29 Jun 23:07:33 23:11:53 37° 98° (E) 23:16:13 437.425
FUNcube-1 29 Jun 23:18:03 23:19:01 11° 268° (W) 23:20:00 145.935
CUBEBUG 1 29 Jun 23:19:04 23:21:49 17° 68° (ENE) 23:24:34 437.445
VELOX 1 29 Jun 23:30:09 23:33:26 21° 69° (ENE) 23:36:43 145.980
AO-85 29 Jun 23:35:16 23:35:57 10° 315° (NW) 23:36:38 145.980
Cosmos 2491 29 Jun 23:42:46 23:48:05 18° 81° (E) 23:53:22 435.465 / 435.565
ANTELSAT 29 Jun 23:47:02 23:51:43 78° 283° (WNW) 23:56:25 437.575/2403.000
HUMSAT D 30 Jun 00:00:55 00:03:13 14° 267° (W) 00:05:32 437.325/437.525
SPROUT 30 Jun 00:02:45 00:05:46 19° 70° (ENE) 00:08:48 437.525
UKube-1 30 Jun 00:03:06 00:06:51 30° 71° (ENE) 00:10:37 .
AISAT 30 Jun 00:09:55 00:14:17 66° 75° (ENE) 00:18:38 437.250
ESTCUBE 1 30 Jun 00:11:20 00:15:52 75° 257° (WSW) 00:20:25 437.505/2401.250
BUGSAT 1 30 Jun 00:16:08 00:16:50 10° 93° (E) 00:17:31 437.445
DX 1 30 Jun 00:25:00 00:29:19 73° 76° (ENE) 00:33:39 434.975-435.025
YUBILEINY 30 Jun 00:30:37 00:39:27 70° 82° (E) 00:48:14 435.215
50 SAT 30 Jun 00:34:54 00:38:30 49° 260° (W) 00:42:08 437.505
NANOSAT C BR1 30 Jun 00:38:29 00:42:41 58° 101° (E) 00:46:53 145.865
TIGRISAT 30 Jun 00:39:07 00:42:42 22° 290° (WNW) 00:46:18 435.000
QB50P1 30 Jun 00:42:17 00:46:32 69° 101° (ESE) 00:50:46 145.935-145.965
RS-15 30 Jun 00:42:18 00:46:00 12° 264° (W) 00:49:42 29.354- 29.394
UNISAT 6 30 Jun 00:45:06 00:48:16 18° 292° (WNW) 00:51:27 437.425
POPSAT HIP 1 30 Jun 00:45:37 00:49:54 75° 102° (ESE) 00:54:10 437.405
Cosmos 2504 30 Jun 00:46:49 00:54:00 27° 72° (ENE) 01:00:52 435.465 / 435.565
CUBEBUG 1 30 Jun 00:53:50 00:57:48 34° 262° (W) 01:01:46 437.445
SO-50 30 Jun 00:54:42 00:59:00 36° 56° (NE) 01:03:08 436.795
DUCHIFAT 1 30 Jun 00:58:19 01:02:35 85° 283° (WNW) 01:06:50 145.980
QB50P2 30 Jun 00:58:20 01:02:36 70° 283° (WNW) 01:06:51 145.880/145.840
PCSat 30 Jun 00:58:21 01:01:04 14° 103° (ESE) 01:03:47 145.827
POLYITAN 1 30 Jun 01:00:58 01:05:14 68° 284° (WNW) 01:09:29 437.675
VELOX 1 30 Jun 01:05:55 01:09:41 28° 263° (W) 01:13:28 145.980
JAS-2 30 Jun 01:06:37 01:10:51 23° 95° (E) 01:14:56 435.910
TISAT 1 30 Jun 01:16:58 01:20:42 33° 72° (ENE) 01:24:27 437.305
Cosmos 2491 30 Jun 01:35:05 01:43:51 77° 277° (W) 01:52:38 435.465 / 435.565
SPROUT 30 Jun 01:37:52 01:41:30 27° 263° (W) 01:45:09 437.525
UKube-1 30 Jun 01:39:55 01:42:52 18° 264° (W) 01:45:51 .
BUGSAT 1 30 Jun 01:48:25 01:52:22 47° 286° (WNW) 01:56:21 437.445
BEESAT 3 30 Jun 01:55:13 01:58:32 27° 112° (ESE) 02:01:54 437.485
SWISSCUBE 30 Jun 02:25:02 02:29:31 41° 72° (ENE) 02:34:01 437.505
YUBILEINY 30 Jun 02:29:21 02:35:18 21° 279° (W) 02:41:17 435.215
BEESAT 2 30 Jun 02:35:34 02:39:19 44° 115° (ESE) 02:43:07 435.950
SO-50 30 Jun 02:36:01 02:39:07 18° 251° (WSW) 02:42:10 436.795
PCSat 30 Jun 02:38:31 02:43:52 61° 297° (WNW) 02:49:14 145.827
Cosmos 2504 30 Jun 02:39:13 02:47:47 57° 270° (W) 02:55:53 435.465 / 435.565
O/OREOS (USA 219) 30 Jun 02:46:10 02:50:37 66° 108° (ESE) 02:55:05 437.305
BEESAT 30 Jun 02:49:50 02:54:35 71° 75° (ENE) 02:59:21 436.000
JAS-2 30 Jun 02:51:13 02:56:00 32° 291° (WNW) 03:00:33 435.910
ITUPSAT 1 30 Jun 02:51:52 02:56:38 73° 76° (ENE) 03:01:27 437.325
TISAT 1 30 Jun 02:54:02 02:56:25 15° 266° (W) 02:58:47 437.305
Oscar 19 30 Jun 02:55:35 03:00:43 79° 284° (WNW) 03:05:51 437.125/150
KKS-1 30 Jun 03:16:50 03:18:54 13° 66° (ENE) 03:20:57 437.445
MOZHAYETS 4 30 Jun 03:18:20 03:20:19 13° 66° (ENE) 03:22:18
ITAMSAT 1 30 Jun 03:22:11 03:26:23 24° 96° (E) 03:30:35 435.822/435.867
Gurwin Techsat 1B 30 Jun 03:24:38 03:29:59 83° 103° (ESE) 03:35:18 435.225
BEESAT 3 30 Jun 03:33:21 03:36:12 19° 307° (NW) 03:39:05 437.485
Cosmos 2491 30 Jun 03:39:25 03:42:05 12° 295° (WNW) 03:44:47 435.465 / 435.565
AO-7 30 Jun 03:42:55 03:48:39 20° 95° (E) 03:54:21 29.400- 29.500
STARS 30 Jun 03:44:49 03:46:47 13° 67° (ENE) 03:48:46 437.465
AIST 1 30 Jun 03:59:27 04:02:26 18° 76° (ENE) 04:05:25
SWISSCUBE 30 Jun 04:04:28 04:07:25 16° 266° (W) 04:10:24 437.505
BEESAT 2 30 Jun 04:15:24 04:17:22 13° 310° (NW) 04:19:21 435.950
GONETS M04 30 Jun 04:34:55 04:39:26 15° 67° (ENE) 04:43:57
CUBESAT XI-V 30 Jun 04:49:43 04:52:10 14° 67° (ENE) 04:54:35 437.345
KKS-1 30 Jun 04:50:46 04:55:01 46° 260° (W) 04:59:17 437.445
MOZHAYETS 4 30 Jun 04:52:28 04:56:57 53° 260° (W) 05:01:30
ITAMSAT 1 30 Jun 05:01:12 05:05:49 33° 290° (WNW) 05:10:25 435.822/435.867
AIST 2 30 Jun 05:08:20 05:12:25 70° 298° (WNW) 05:16:32 435.215
Gurwin Techsat 1B 30 Jun 05:08:21 05:09:09 10° 298° (WNW) 05:09:58 435.225
STARS 30 Jun 05:18:33 05:22:42 45° 260° (W) 05:26:54 437.465
Cosmos 2499 30 Jun 05:19:11 05:25:10 20° 69° (ENE) 05:30:54 435.465 / 435.565
PHONESAT 2.4 30 Jun 05:30:17 05:32:58 28° 146° (SSE) 05:35:39 2401.200-2431.200
AO-7 30 Jun 05:33:37 05:41:57 73° 290° (WNW) 05:50:15 29.400- 29.500
AIST 1 30 Jun 05:36:27 05:39:58 26° 270° (W) 05:43:30
HORYU 2 30 Jun 06:11:00 06:15:31 82° 105° (ESE) 06:20:00 437.375
CUTE-I 30 Jun 06:16:51 06:18:05 11° 91° (E) 06:19:18 437.470
CUBESAT XI-V 30 Jun 06:24:32 06:29:05 48° 261° (W) 06:33:38 437.345
AO-85 30 Jun 06:26:18 06:30:11 29° 54° (NE) 06:33:45 145.980
GONETS M04 30 Jun 06:28:35 06:37:21 90° 84° (E) 06:46:09
LilacSat-2 30 Jun 06:32:28 06:34:01 12° 93° (E) 06:35:33 437.200
NOAA 15 30 Jun 06:36:45 06:41:09 27° 97° (E) 06:45:31 137.62
STRAND 1 30 Jun 06:49:27 06:53:03 20° 67° (ENE) 06:56:40 437.568
PHONESAT 2.4 30 Jun 07:06:34 07:09:29 42° 340° (NNW) 07:12:26 2401.200-2431.200
CUSAT 1 30 Jun 07:09:43 07:16:54 40° 93° (E) 07:23:09 437.405
Cosmos 2499 30 Jun 07:10:28 07:19:07 72° 267° (W) 07:27:08 435.465 / 435.565
BRITE-PL 30 Jun 07:11:36 07:15:43 62° 100° (E) 07:19:57 437.365/2234.400
Cubesat XI-IV 30 Jun 07:19:27 07:24:42 52° 100° (E) 07:29:55 437.490
NOAA 18 30 Jun 07:27:41 07:33:13 68° 102° (ESE) 07:38:44 137.9125
AO-7 30 Jun 07:29:48 07:33:15 13° 308° (NW) 07:36:43 29.400- 29.500
GOMX 1 30 Jun 07:36:17 07:40:26 50° 100° (E) 07:44:48 467.674
DANDE 30 Jun 07:47:20 07:55:00 41° 91° (E) 08:02:17 436.750
CUTE-I 30 Jun 07:53:11 07:58:33 72° 285° (WNW) 08:03:53 437.470
LilacSat-2 30 Jun 08:04:50 08:08:24 35° 286° (WNW) 08:11:57 437.200
AO-85 30 Jun 08:07:18 08:10:19 19° 252° (WSW) 08:13:12 145.980
NOAA 15 30 Jun 08:16:20 08:20:50 30° 291° (WNW) 08:25:20 137.62
CUTE 1.7 + AOD 2 30 Jun 08:19:27 08:21:40 14° 93° (E) 08:23:52 437.475
ISS 30 Jun 08:23:33 08:26:46 61° 318° (NW) 08:30:00 145.825
STRAND 1 30 Jun 08:27:03 08:31:53 41° 261° (W) 08:36:44 437.568
DOVE 4 30 Jun 08:27:30 08:31:56 88° 103° (ESE) 08:36:38 437.250
GONETS M04 30 Jun 08:28:54 08:32:52 14° 281° (W) 08:36:51
PRISM 30 Jun 08:40:24 08:44:13 36° 73° (ENE) 08:48:03 437.425
PHONESAT 2.4 30 Jun 08:44:10 08:46:33 20° 357° (N) 08:48:56 2401.200-2431.200
CUSAT 1 30 Jun 08:51:56 08:58:53 35° 282° (WNW) 09:04:57 437.405
AAUSAT CUBESAT 2 30 Jun 08:54:23 08:56:21 13° 93° (E) 08:58:17 437.432
HO-68 30 Jun 08:54:29 09:01:22 46° 100° (E) 09:08:11 435.675
CUBEBUG 2 30 Jun 08:57:01 08:59:30 14° 93° (E) 09:01:59 437.445
Cubesat XI-IV 30 Jun 09:00:56 09:04:17 17° 295° (WNW) 09:07:38 437.490
CINEMA 3 30 Jun 09:10:01 09:14:40 73° 101° (E) 09:19:30 145.822/145.860
NOAA 18 30 Jun 09:10:30 09:13:14 14° 297° (WNW) 09:15:58 137.9125
GOMX 1 30 Jun 09:16:52 09:18:09 11° 292° (WNW) 09:19:26 467.674
Oscar 11 30 Jun 09:23:03 09:24:06 11° 92° (E) 09:25:08 145.826/435.025
COMPASS 1 30 Jun 09:28:31 09:32:33 47° 99° (E) 09:36:33 437.405
DANDE 30 Jun 09:30:00 09:37:44 40° 283° (WNW) 09:45:02 436.750
FUNcube-1 30 Jun 09:32:06 09:34:25 14° 93° (E) 09:36:44 145.935
CANX-2 30 Jun 09:33:49 09:38:01 57° 284° (WNW) 09:42:11 2200.000
UWE-3 30 Jun 09:39:14 09:43:16 29° 97° (E) 09:47:18 435.000/436.395/437.385
CUTE 1.7 + AOD 2 30 Jun 09:53:40 09:57:37 37° 286° (WNW) 10:01:32 437.475
SEEDS 30 Jun 09:54:05 09:58:13 53° 285° (WNW) 10:02:18 437.485
AUBIESAT-1 30 Jun 09:57:14 10:00:48 28° 103° (ESE) 10:04:32 437.475
TIGRISAT 30 Jun 09:58:07 10:00:35 15° 67° (ENE) 10:03:05 435.000
UNISAT 6 30 Jun 10:03:17 10:06:17 19° 69° (ENE) 10:09:20 437.425
PRISM 30 Jun 10:17:29 10:19:37 14° 266° (W) 10:21:45 437.425
PHONESAT 2.4 30 Jun 10:21:00 10:23:43 28° 14° (NNE) 10:26:26 2401.200-2431.200
DELFI C3 30 Jun 10:24:31 10:27:50 25° 96° (E) 10:31:06 145.870
AAUSAT CUBESAT 2 30 Jun 10:28:06 10:31:56 37° 286° (WNW) 10:35:45 437.432
RS-15 30 Jun 10:31:31 10:40:18 27° 102° (ESE) 10:49:24 29.354- 29.394
CUBEBUG 2 30 Jun 10:31:47 10:36:15 46° 286° (WNW) 10:40:46 437.445
M-CUBED/EXP-1 PRIME 30 Jun 10:37:45 10:41:47 72° 288° (WNW) 10:46:07 437.505
ANTELSAT 30 Jun 10:41:39 10:45:48 53° 75° (ENE) 10:50:05 437.575/2403.000
HO-68 30 Jun 10:42:45 10:48:43 29° 295° (WNW) 10:54:42 435.675
ZACube-1 30 Jun 10:49:47 10:54:20 66° 284° (WNW) 10:58:52 437.345
Oscar 11 30 Jun 10:56:14 11:00:27 50° 285° (WNW) 11:04:38 145.826/435.025
COMPASS 1 30 Jun 11:06:18 11:07:38 11° 293° (WNW) 11:08:58 437.405
FUNcube-1 30 Jun 11:06:28 11:10:49 44° 286° (WNW) 11:15:09 145.935
UWE-3 30 Jun 11:15:56 11:19:31 23° 290° (WNW) 11:23:07 435.000/436.395/437.385
NANOSAT C BR1 30 Jun 11:27:01 11:30:23 24° 71° (ENE) 11:33:44 145.865
PCSat 30 Jun 11:30:41 11:35:51 43° 60° (ENE) 11:40:58 145.827
QB50P1 30 Jun 11:30:53 11:34:28 28° 72° (ENE) 11:38:05 145.935-145.965
AUBIESAT-1 30 Jun 11:32:03 11:35:04 20° 293° (WNW) 11:38:15 437.475
TIGRISAT 30 Jun 11:32:57 11:36:54 37° 262° (W) 11:40:58 435.000
POPSAT HIP 1 30 Jun 11:34:13 11:37:52 30° 72° (ENE) 11:41:33 437.405
YUBILEINY 30 Jun 11:35:09 11:39:00 14° 79° (ENE) 11:42:52 435.215
UNISAT 6 30 Jun 11:39:00 11:42:45 30° 263° (W) 11:46:36 437.425
DUCHIFAT 1 30 Jun 11:46:04 11:49:55 38° 73° (ENE) 11:53:47 145.980
HUMSAT D 30 Jun 11:46:17 11:50:35 67° 284° (WNW) 11:54:49 437.325/437.525
QB50P2 30 Jun 11:46:38 11:50:39 47° 74° (ENE) 11:54:41 145.880/145.840
POLYITAN 1 30 Jun 11:49:15 11:53:16 49° 75° (ENE) 11:57:20 437.675
Cosmos 2491 30 Jun 11:51:00 11:59:14 44° 78° (ENE) 12:07:25 435.465 / 435.565
BEESAT 3 30 Jun 11:53:07 11:57:02 62° 60° (ENE) 12:00:56 437.485
PHONESAT 2.4 30 Jun 11:57:26 12:00:28 62° 209° (SSW) 12:03:30 2401.200-2431.200
DELFI C3 30 Jun 11:59:43 12:02:29 18° 290° (WNW) 12:05:13 145.870
AISAT 30 Jun 12:05:23 12:08:16 17° 95° (E) 12:11:09 437.250
ESTCUBE 1 30 Jun 12:08:26 12:12:25 31° 97° (E) 12:16:22 437.505/2401.250
50 SAT 30 Jun 12:08:56 12:11:25 17° 95° (E) 12:13:52 437.505
DX 1 30 Jun 12:18:29 12:21:20 17° 95° (E) 12:24:11 434.975-435.025
BUGSAT 1 30 Jun 12:33:40 12:37:38 63° 76° (ENE) 12:41:36 437.445
BEESAT 2 30 Jun 12:34:51 12:38:51 79° 243° (WSW) 12:42:48 435.950
RS-15 30 Jun 12:40:17 12:51:32 71° 301° (WNW) 13:03:31 29.354- 29.394
CUBEBUG 1 30 Jun 12:46:05 12:50:20 57° 101° (E) 12:54:35 437.445
JAS-2 30 Jun 12:55:31 13:03:07 64° 74° (ENE) 13:10:04 435.910
VELOX 1 30 Jun 12:59:22 13:03:45 74° 101° (ESE) 13:08:08 145.980
O/OREOS (USA 219) 30 Jun 13:00:18 13:04:45 62° 69° (ENE) 13:09:12 437.305
NANOSAT C BR1 30 Jun 13:02:49 13:06:00 21° 264° (W) 13:09:12 145.865
QB50P1 30 Jun 13:07:22 13:10:14 18° 265° (W) 13:13:06 145.935-145.965
POPSAT HIP 1 30 Jun 13:10:59 13:13:40 17° 265° (W) 13:16:22 437.405
PCSat 30 Jun 13:14:59 13:18:51 20° 255° (WSW) 13:22:44 145.827
Cosmos 2504 30 Jun 13:20:24 13:26:23 23° 82° (E) 13:32:38 435.465 / 435.565
DUCHIFAT 1 30 Jun 13:23:47 13:25:43 13° 266° (W) 13:27:40 145.980
YUBILEINY 30 Jun 13:25:44 13:34:27 90° 95° (E) 13:43:15 435.215
QB50P2 30 Jun 13:25:53 13:26:39 10° 267° (W) 13:27:26 145.880/145.840
SPROUT 30 Jun 13:27:10 13:31:26 66° 102° (ESE) 13:35:42 437.525
POLYITAN 1 30 Jun 13:29:00 13:29:18 10° 268° (W) 13:29:37 437.675
UKube-1 30 Jun 13:29:33 13:33:52 80° 282° (WNW) 13:38:09 .
AIST 2 30 Jun 13:34:11 13:37:23 21° 54° (NE) 13:40:35 435.215
AISAT 30 Jun 13:40:51 13:44:46 33° 288° (WNW) 13:48:42 437.250
50 SAT 30 Jun 13:42:08 13:45:00 22° 289° (WNW) 13:47:50 437.505
ESTCUBE 1 30 Jun 13:45:46 13:48:58 19° 291° (WNW) 13:52:09 437.505/2401.250
Cosmos 2491 30 Jun 13:48:16 13:55:43 33° 274° (W) 14:03:13 435.465 / 435.565
DX 1 30 Jun 13:53:42 13:57:32 32° 288° (WNW) 14:01:23 434.975-435.025
Oscar 19 30 Jun 14:08:03 14:13:12 84° 257° (WSW) 14:18:22 437.125/150
CUBEBUG 1 30 Jun 14:25:35 14:26:05 10° 294° (WNW) 14:26:35 437.445
SWISSCUBE 30 Jun 14:30:51 14:33:31 15° 94° (E) 14:36:09 437.505
ITAMSAT 1 30 Jun 14:36:10 14:40:21 25° 68° (ENE) 14:44:34 435.822/435.867
AO-7 30 Jun 14:38:09 14:43:52 21° 57° (ENE) 14:49:37 29.400- 29.500
JUGNU 30 Jun 14:39:44 14:43:30 17° 169° (SSE) 14:47:16 437.505
TISAT 1 30 Jun 14:39:55 14:44:08 72° 283° (WNW) 14:48:19 437.305
Gurwin Techsat 1B 30 Jun 14:41:23 14:46:42 86° 76° (ENE) 14:52:02 435.225
JAS-2 30 Jun 14:42:47 14:48:16 21° 265° (W) 14:53:32 435.910
BEESAT 30 Jun 14:54:48 14:58:43 25° 96° (E) 15:02:37 436.000
ISS 30 Jun 14:54:59 14:57:31 20° 35° (NE) 15:00:02 145.825
ITUPSAT 1 30 Jun 14:57:12 15:01:12 26° 97° (E) 15:05:10 437.325
RS-15 30 Jun 14:58:35 15:06:42 21° 327° (NNW) 15:15:07 29.354- 29.394
SO-50 30 Jun 15:04:29 15:08:51 33° 112° (ESE) 15:13:13 436.795
Cosmos 2504 30 Jun 15:11:01 15:18:55 61° 280° (W) 15:27:28 435.465 / 435.565
AIST 2 30 Jun 15:12:16 15:15:51 28° 248° (WSW) 15:19:23 435.215
YUBILEINY 30 Jun 15:27:48 15:32:21 15° 293° (WNW) 15:36:58 435.215
SRMSAT 30 Jun 15:59:37 16:02:03 13° 164° (SSE) 16:04:29 437.500
SWISSCUBE 30 Jun 16:06:55 16:11:28 45° 287° (WNW) 16:16:00 437.505
ITAMSAT 1 30 Jun 16:15:00 16:19:37 32° 262° (W) 16:24:17 435.822/435.867
AIST 1 30 Jun 16:25:25 16:27:33 14° 87° (E) 16:29:40
JUGNU 30 Jun 16:27:21 16:31:52 22° 179° (S) 16:36:24 437.505
AO-7 30 Jun 16:27:23 16:35:43 78° 254° (WSW) 16:44:07 29.400- 29.500
ISS 30 Jun 16:31:03 16:33:59 30° 229° (SW) 16:36:53 145.825
BEESAT 30 Jun 16:32:23 16:36:24 27° 290° (WNW) 16:40:23 436.000
ITUPSAT 1 30 Jun 16:34:56 16:38:54 26° 290° (WNW) 16:42:51 437.325
SO-50 30 Jun 16:45:18 16:49:20 25° 307° (NW) 16:53:22 436.795
KKS-1 30 Jun 16:45:41 16:49:58 44° 100° (E) 16:54:13 437.445
MOZHAYETS 4 30 Jun 16:51:38 16:56:08 49° 99° (E) 17:00:35
HORYU 2 30 Jun 17:04:47 17:08:58 43° 73° (ENE) 17:13:11 437.375
STARS 30 Jun 17:11:53 17:16:06 42° 100° (E) 17:20:17 437.465
RS-15 30 Jun 17:23:17 17:26:36 11° 5° (N) 17:29:57 29.354- 29.394
GONETS M04 30 Jun 17:31:00 17:36:46 20° 82° (E) 17:42:31
CUTE-I 30 Jun 17:34:11 17:36:36 13° 64° (ENE) 17:39:01 437.470
SRMSAT 30 Jun 17:46:16 17:50:33 20° 174° (S) 17:54:50 437.500
Cosmos 2499 30 Jun 17:51:25 17:56:21 17° 79° (E) 18:01:24 435.465 / 435.565
NOAA 15 30 Jun 17:52:44 17:57:14 29° 69° (ENE) 18:01:44 137.62
AIST 1 30 Jun 18:00:46 18:04:45 36° 280° (W) 18:08:44
JUGNU 30 Jun 18:16:12 18:20:17 19° 189° (S) 18:24:22 437.505
BRITE-PL 30 Jun 18:17:48 18:22:41 48° 75° (ENE) 18:27:13 437.365/2234.400
KKS-1 30 Jun 18:23:51 18:26:06 14° 293° (WNW) 18:28:21 437.445
CUBESAT XI-V 30 Jun 18:25:12 18:29:44 57° 100° (E) 18:34:14 437.345
AO-7 30 Jun 18:27:35 18:29:29 11° 269° (W) 18:31:24 29.400- 29.500
MOZHAYETS 4 30 Jun 18:30:35 18:32:49 13° 294° (WNW) 18:35:03
Cubesat XI-IV 30 Jun 18:37:11 18:42:23 56° 73° (ENE) 18:47:38 437.490
GOMX 1 30 Jun 18:40:35 18:44:46 34° 73° (ENE) 18:48:42 467.674
LilacSat-2 30 Jun 18:42:11 18:45:52 55° 76° (ENE) 18:49:35 437.200
HORYU 2 30 Jun 18:43:35 18:45:41 13° 266° (W) 18:47:47 437.375
STARS 30 Jun 18:49:44 18:52:02 14° 293° (WNW) 18:54:22 437.465
NOAA 18 30 Jun 18:49:47 18:55:14 85° 75° (ENE) 19:00:45 137.9125
CUTE-I 30 Jun 19:10:43 19:16:00 67° 258° (WSW) 19:21:21 437.470
HO-68 30 Jun 19:19:56 19:25:11 23° 62° (ENE) 19:30:27 435.675
GONETS M04 30 Jun 19:23:59 19:32:39 70° 278° (W) 19:41:19
DOVE 4 30 Jun 19:29:11 19:33:23 51° 75° (ENE) 19:37:28 437.250
NOAA 15 30 Jun 19:32:23 19:36:53 28° 263° (W) 19:41:25 137.62
CUSAT 1 30 Jun 19:33:29 19:36:18 31° 268° (W) 19:38:44 437.405
SRMSAT 30 Jun 19:34:41 19:39:06 22° 184° (S) 19:43:31 437.500
RS-15 30 Jun 19:35:37 19:45:39 28° 41° (NE) 19:55:35 29.354- 29.394
Cosmos 2499 30 Jun 19:40:00 19:48:14 80° 277° (W) 19:57:04 435.465 / 435.565
BRITE-PL 30 Jun 19:58:32 20:01:14 14° 265° (W) 20:03:51 437.365/2234.400
CUBESAT XI-V 30 Jun 20:05:02 20:06:34 12° 294° (WNW) 20:08:06 437.345
JUGNU 30 Jun 20:08:06 20:08:37 10° 198° (SSW) 20:09:07 437.505
CINEMA 3 30 Jun 20:08:09 20:11:56 36° 73° (ENE) 20:15:45 145.822/145.860
COMPASS 1 30 Jun 20:15:52 20:18:50 19° 70° (ENE) 20:21:48 437.405
DANDE 30 Jun 20:17:36 20:21:24 34° 270° (W) 20:24:24 436.750
GOMX 1 30 Jun 20:19:51 20:22:51 17° 264° (W) 20:25:45 467.674
Cubesat XI-IV 30 Jun 20:19:57 20:22:45 14° 267° (W) 20:25:33 437.490
CANX-2 30 Jun 20:21:54 20:26:05 56° 75° (ENE) 20:30:18 2200.000
UWE-3 30 Jun 20:34:00 20:35:56 13° 67° (ENE) 20:37:55 435.000/436.395/437.385
AO-85 30 Jun 20:35:12 20:39:59 32° 111° (ESE) 20:44:42 145.980
SEEDS 30 Jun 20:41:05 20:45:15 57° 76° (ENE) 20:49:26 437.485
CUTE 1.7 + AOD 2 30 Jun 20:41:21 20:45:37 85° 77° (ENE) 20:49:55 437.475
STRAND 1 30 Jun 20:41:27 20:46:38 86° 283° (WNW) 20:51:45 437.568
AUBIESAT-1 30 Jun 20:41:40 20:43:15 13° 65° (ENE) 20:44:50 437.475
HO-68 30 Jun 21:05:17 21:12:18 60° 258° (WSW) 21:19:24 435.675
AAUSAT CUBESAT 2 30 Jun 21:13:21 21:17:32 77° 77° (ENE) 21:21:44 437.432
M-CUBED/EXP-1 PRIME 30 Jun 21:21:19 21:24:33 65° 72° (ENE) 21:27:47 437.505
SRMSAT 30 Jun 21:24:25 21:27:36 15° 194° (SSW) 21:30:49 437.500
CUBEBUG 2 30 Jun 21:25:31 21:29:40 88° 81° (E) 21:33:56 437.445
Cosmos 2499 30 Jun 21:39:16 21:42:48 13° 296° (WNW) 21:46:24 435.465 / 435.565
ZACube-1 30 Jun 21:41:16 21:45:21 55° 75° (ENE) 21:49:33 437.345
Oscar 11 30 Jun 21:46:14 21:50:32 71° 76° (ENE) 21:54:52 145.826/435.025
CINEMA 3 30 Jun 21:47:13 21:49:13 13° 267° (W) 21:51:11 145.822/145.860
RS-15 30 Jun 21:47:25 21:59:51 89° 245° (WSW) 22:12:01 29.354- 29.394
COMPASS 1 30 Jun 21:50:32 21:54:09 28° 263° (W) 21:57:48 437.405
FUNcube-1 30 Jun 21:57:22 22:01:32 83° 77° (ENE) 22:05:50 145.935
PRISM 30 Jun 22:00:53 22:04:57 73° 284° (WNW) 22:08:59 437.425
UWE-3 30 Jun 22:08:03 22:11:59 41° 262° (W) 22:16:01 435.000/436.395/437.385
AUBIESAT-1 30 Jun 22:14:50 22:17:32 23° 258° (WSW) 22:20:15 437.475
AO-85 30 Jun 22:15:39 22:20:26 31° 305° (NW) 22:25:06 145.980
